This demonstration page uses our WeatherBlox Daily Observations layout. Learn more.

Left ArrowRight Arrow

34.16533, -84.80231

Hourly Observations for August 15, 2017

Temp ( °F °C ) Dew Point ( °F °C ) Humidity (%) Winds ( mph kmh ) Pressure ( in mb ) Visibility ( mi km ) Precip ( " mm )
12:53 am 00:53 Clear 73 22.8 73 22.8 100 100 Calm 29.89 1012 9 14 0.00 0.00
1:53 am 01:53 Clear 73 22.8 73 22.8 100 100 Calm 29.89 1012 9 14 0.00 0.00
2:53 am 02:53 Clear 72 22.2 72 22.2 100 100 Calm 29.88 1012 8 13 0.00 0.00
3:53 am 03:53 Clear 72 22.2 72 22.2 100 100 Calm 29.89 1012 9 14 0.00 0.00
4:53 am 04:53 Mostly Cloudy 73 22.8 73 22.8 100 100 Calm 29.90 1013 10 16 0.00 0.00
5:53 am 05:53 Partly Cloudy 72 22.2 72 22.2 100 100 Calm 29.92 1013 10 16 0.00 0.00
6:18 am 06:18 Mostly Cloudy 72 22.2 72 22.2 100 100 Calm 29.97 1015 10 16 0.00 0.00
6:53 am 06:53 Mostly Cloudy 73 22.8 73 22.8 100 100 Calm 29.93 1014 9 14 0.00 0.00
7:14 am 07:14 Mostly Cloudy 72 22.2 72 22.2 100 100 Calm 29.97 1015 8 13 0.00 0.00
7:53 am 07:53 Mostly Cloudy 73 22.8 73 22.8 100 100 Calm 29.94 1014 9 14 0.00 0.00
8:15 am 08:15 Partly Cloudy 74 23.3 74 23.3 100 100 Calm 29.97 1015 10 16 0.00 0.00
8:45 am 08:45 Mostly Sunny 75 23.9 75 23.9 100 100 Calm 30.00 1016 10 16 0.00 0.00
8:53 am 08:53 Partly Cloudy 75 23.9 74 23.3 96 96 SW 3 6 29.95 1014 10 16 0.00 0.00
9:53 am 09:53 Mostly Cloudy 77 25 75 23.9 94 94 Calm 29.95 1014 10 16 0.00 0.00
10:18 am 10:18 Partly Cloudy 78 25.6 76 24.4 93 93 Calm 29.97 1015 10 16 0.00 0.00
10:53 am 10:53 Mostly Cloudy 81 27.2 75 23.9 82 82 Calm 29.96 1015 10 16 0.00 0.00
11:53 am 11:53 Mostly Cloudy 83 28.3 76 24.4 79 79 Calm 29.98 1015 10 16 0.00 0.00
12:53 pm 12:53 Partly Cloudy 87 30.6 74 23.3 65 65 Calm 29.97 1015 10 16 0.00 0.00
1:53 pm 13:53 Mostly Sunny 87 30.6 74 23.3 65 65 Calm 29.94 1014 10 16 0.00 0.00
2:53 pm 14:53 Mostly Sunny 89 31.7 75 23.9 63 63 Calm 29.93 1013 10 16 0.00 0.00
3:53 pm 15:53 Mostly Sunny 88 31.1 76 24.4 68 68 Calm 29.91 1013 10 16 0.00 0.00
4:53 pm 16:53 Sunny 88 31.1 74 23.3 63 63 VRB 5 7 29.90 1013 10 16 0.00 0.00
5:53 pm 17:53 Sunny 88 31.1 73 22.8 61 61 VRB 3 6 29.89 1012 10 16 0.00 0.00
6:53 pm 18:53 Partly Cloudy 86 30 74 23.3 67 67 Calm 29.91 1013 10 16 0.00 0.00
7:53 pm 19:53 Mostly Cloudy 84 28.9 75 23.9 74 74 Calm 29.93 1014 10 16 0.00 0.00
8:53 pm 20:53 Mostly Cloudy 80 26.7 77 25 90 90 Calm 29.94 1014 10 16 0.00 0.00
9:53 pm 21:53 Mostly Clear 77 25 77 25 100 100 Calm 29.96 1014 10 16 0.00 0.00
10:39 pm 22:39 Mostly Cloudy with Nearby Thunderstorms 78 25.6 76 24.4 93 93 Calm 29.97 1015 10 16 0.00 0.00
10:53 pm 22:53 Mostly Cloudy 77 25 76 24.4 96 96 Calm 29.97 1015 10 16 0.00 0.00
11:53 pm 23:53 Clear 76 24.4 75 23.9 97 97 Calm 29.97 1015 10 16 0.00 0.00

Powered by AerisWeather